Location: Hastringsfeld
(50.9620°N, 10.4787°E)
Time: 03:46:44
(UTC+00:00)

Cosmos 2221 - Pass Details

Date: 26 September 2023
Orbit: 584 x 608 km, 82.5° (Epoch: 29 November)

Event Time Altitude Azimuth Distance (km) Brightness Sun altitude
Exits shadow 04:11:15 13° 247° (WSW) 1,749 4.2 -10.0°
Maximum altitude 04:14:01 23° 293° (WNW) 1,312 3.8 -9.6°
Drops below altitude 10° 04:17:28 10° 346° (NNW) 1,964 5.1 -9.1°
Sets 04:20:06 0° 1° (N) 2,877 6.1 -8.6°
